TimeEST,TemperatureF,Dew PointF,Humidity,Sea Level PressureIn,VisibilityMPH,Wind Direction,Wind SpeedMPH,Gust SpeedMPH,PrecipitationIn,Events,Conditions,WindDirDegrees,DateUTC
12:53 AM,52.0,46.0,80,29.69,10.0,SSW,15.0,26.5,N/A,,Overcast,200,2013-02-11 05:53:00
1:53 AM,52.0,46.0,80,29.68,10.0,SSW,16.1,24.2,N/A,,Overcast,210,2013-02-11 06:53:00
2:49 AM,51.8,46.4,82,29.69,10.0,SW,17.3,25.3,N/A,,Mostly Cloudy,220,2013-02-11 07:49:00
2:53 AM,52.0,46.0,80,29.68,10.0,SSW,16.1,21.9,N/A,,Scattered Clouds,210,2013-02-11 07:53:00
3:53 AM,51.1,44.1,77,29.67,10.0,SW,15.0,24.2,N/A,,Clear,220,2013-02-11 08:53:00
4:53 AM,51.1,36.0,56,29.68,10.0,WSW,21.9,33.4,N/A,,Mostly Cloudy,240,2013-02-11 09:53:00
5:53 AM,45.0,32.0,60,29.72,10.0,West,20.7,36.8,N/A,,Mostly Cloudy,270,2013-02-11 10:53:00
6:53 AM,42.1,28.0,58,29.75,10.0,West,23.0,35.7,N/A,,Mostly Cloudy,260,2013-02-11 11:53:00
7:53 AM,41.0,28.9,62,29.77,10.0,West,19.6,27.6,N/A,,Overcast,260,2013-02-11 12:53:00
8:53 AM,39.0,24.1,55,29.80,10.0,WSW,23.0,35.7,N/A,,Overcast,250,2013-02-11 13:53:00
9:53 AM,39.0,24.1,55,29.82,10.0,West,23.0,35.7,N/A,,Overcast,260,2013-02-11 14:53:00
10:53 AM,37.9,25.0,60,29.84,10.0,WSW,24.2,35.7,N/A,,Overcast,250,2013-02-11 15:53:00
11:53 AM,37.0,21.9,54,29.87,9.0,West,20.7,42.6,0.00,Snow,Light Snow,260,2013-02-11 16:53:00
12:53 PM,37.0,25.0,62,29.87,10.0,West,15.0,27.6,0.00,,Overcast,270,2013-02-11 17:53:00
1:53 PM,37.0,24.1,59,29.88,10.0,West,21.9,38.0,N/A,,Overcast,260,2013-02-11 18:53:00
2:53 PM,37.0,24.1,59,29.89,10.0,West,18.4,32.2,0.00,,Overcast,260,2013-02-11 19:53:00
3:53 PM,37.0,23.0,57,29.92,10.0,West,23.0,32.2,0.00,,Overcast,260,2013-02-11 20:53:00
4:53 PM,37.0,23.0,57,29.94,10.0,West,19.6,29.9,N/A,,Overcast,260,2013-02-11 21:53:00
5:53 PM,37.0,24.1,59,29.95,10.0,West,18.4,24.2,N/A,,Overcast,260,2013-02-11 22:53:00
6:53 PM,37.0,26.1,65,29.96,10.0,West,15.0,23.0,N/A,,Overcast,270,2013-02-11 23:53:00
7:53 PM,37.0,25.0,62,29.98,10.0,West,17.3,24.2,N/A,,Overcast,270,2013-02-12 00:53:00
8:53 PM,36.0,26.1,67,30.00,10.0,West,12.7,21.9,N/A,,Overcast,280,2013-02-12 01:53:00
9:53 PM,34.0,24.1,67,30.00,10.0,West,13.8,-,N/A,,Mostly Cloudy,270,2013-02-12 02:53:00
10:53 PM,33.1,24.1,70,30.02,10.0,West,11.5,-,N/A,,Clear,270,2013-02-12 03:53:00
11:53 PM,33.1,24.1,70,30.03,10.0,West,11.5,-,N/A,,Clear,280,2013-02-12 04:53:00